Location: Abundant Grace Fellowship
(35.0349°N, 90.0924°W)
Time: 15:41:02
(UTC+00:00)

Cosmos 1992 Rocket - Pass Details

Date: 18 January 2026
Orbit: 754 x 761 km, 74.0° (Epoch: 18 February)

Event Time Altitude Azimuth Distance (km) Brightness Sun altitude
Exits shadow 11:04:28 72° 302° (WNW) 798 3.8 -24.8°
Maximum altitude 11:04:52 78° 255° (WSW) 779 3.8 -24.7°
Drops below altitude 10° 11:10:02 10° 169° (S) 2,281 6.7 -23.7°
Sets 11:12:24 0° 168° (SSE) 3,203 7.5 -23.2°
